User: anonymous   Login
Location: Unspecified
(0.0000°N, 0.0000°E)
Time: 20:40:59
(UTC+00:00)
Language:

COSMOS-2409 - Orbit

View from above orbital plane
View from above orbital plane
View from above satellite
View from above satellite

Ground track
Ground track

The orbit data is extracted from the following two-line orbital elements,

1 28420U 04037B   17172.75817904 +.00000002 +00000-0 -57944-4 0  9995
2 28420 082.4858 223.7818 0012178 269.8641 090.1044 12.45270268579274
Epoch (UTC): 21 June 2017 18:11:46
Eccentricity: 0.0012178
inclination: 82.4858°
perigee height: 1475 km
apogee height: 1494 km
right ascension of ascending node: 223.7818°
argument of perigee: 269.8641°
revolutions per day: 12.45270268
mean anomaly at epoch: 90.1044°
orbit number at epoch: 57927

The dashed part of the orbit path shows where the satellite is in the earth's shadow,  

DLR